sat.trackr.live / text

‹ back to catalog

STARLINK-36434

NORAD 67322 · 2026-002T

PAYLOAD ACTIVE UNKNOWN

§ Identity

Operator
Country
US
Launch date
2026-01-04
Launch site
AFETR
Launch vehicle
Mass (kg)
RCS (m²)

Purposes: comms

External: N2YO · Heavens-Above · Gunter

§ Orbital elements

Epoch: 2026-09-19T10:02:04.133760Z

Period
94.27 min
Inclination
43.0023°
Eccentricity
0.0001103
Mean motion
15.27605020 rev/d
Perigee alt
482.2 km
Apogee alt
483.7 km
Semi-major
6,861.1 km
B*
4.6997e-4
RAAN
311.4988°
Arg perigee
260.0592°
Mean anomaly
100.0135°
Rev number
4,070

§ Raw data

STARLINK-364341 67322U 26002T   26262.41810340  .00012703  00000+0  46997-3 0  99992 67322  43.0023 311.4988 0001103 260.0592 100.0135 15.27605020 40706

JSON: /api/v1/satellites/67322 · /tle

For live sub-satellite position, see the globe view (requires WebGL).

§ Visibility from observer

Set your observer location to see the next 7 days of passes ≥ 10°. The values pass through the URL so the page stays shareable.

No JS? Fill the form by hand. The geolocation button needs JavaScript.